Theta_e
336 334 335 337 339 340 338 340 345 343 347 352 343 340 340 337 341 342 345 340 340 338 336 339 339 338 337 333 334 333 333 331
332 332 332 333 335 337 337 338 339 343 341 340 338 334 335 335 337 344 340 339 340 341 337 340 338 336 332 335 327 330 329 329
329 332 333 333 333 335 335 338 337 337 338 336 335 334 333 334 335 336 335 336 335 334 333 335 334 333 330 329 326 325 323 324
327 329 331 331 334 334 334 336 338 337 336 336 335 336 336 333 332 332 333 332 330 332 332 331 328 327 325 322 322 321 321 323
325 326 326 327 328 330 331 331 332 334 330 333 332 332 333 331 330 329 332 330 329 332 328 328 326 326 324 323 321 322 322 324
322 323 323 325 324 325 329 328 330 332 331 330 329 329 329 328 329 326 326 325 326 326 326 326 328 327 325 322 323 320 321 317
318 320 321 322 325 326 325 326 325 327 328 327 328 330 327 331 330 329 326 323 322 322 322 322 325 323 321 321 320 317 315 315
318 320 324 324 325 326 326 326 326 326 324 325 322 321 322 324 326 326 327 327 326 328 326 327 327 325 324 323 323 318 317 315
323 322 325 324 325 324 325 325 326 323 318 318 317 316 319 320 322 324 322 321 320 325 320 321 325 325 326 326 323 321 319 319
321 323 323 323 322 324 325 325 325 323 318 319 318 318 318 318 320 321 322 320 321 319 323 320 323 320 325 326 325 322 319 319
319 320 321 321 321 322 324 325 324 323 322 319 319 319 318 315 316 316 318 319 320 321 322 322 321 322 319 325 326 323 317 318
318 318 319 320 321 322 323 323 322 321 322 321 319 315 312 314 316 318 318 319 319 320 320 321 322 320 322 322 324 324 321 317
315 317 318 320 320 322 321 321 321 321 321 321 315 315 313 315 315 317 319 321 320 318 320 320 321 320 322 322 322 323 324 319
315 316 318 318 318 317 317 318 320 318 320 319 317 316 316 313 315 313 314 315 315 318 319 320 321 322 321 321 322 322 322 321
315 316 315 315 314 314 315 314 314 316 315 316 316 317 316 316 315 313 313 313 314 318 320 320 319 320 320 321 321 320 321 320
314 315 314 314 314 312 312 312 312 313 314 315 315 315 313 313 314 313 312 312 315 318 318 319 318 319 319 319 317 318 320 321
315 316 314 311 311 312 311 311 311 313 313 313 313 314 313 311 312 312 312 315 314 315 317 317 317 317 317 317 315 315 318 320
312 312 311 313 312 310 312 312 313 311 312 311 311 311 311 311 311 311 311 313 315 315 315 315 316 316 315 316 313 313 314 314
311 311 312 310 310 312 311 312 310 311 310 310 310 309 309 309 309 309 309 311 313 312 312 311 311 313 314 314 311 312 311 313
309 310 308 310 308 308 308 310 308 308 309 311 309 307 308 309 308 307 309 309 311 311 312 311 311 310 313 313 312 313 312 312
Wind_Speed
15 11 11 12 13 10 13 11 9 8 5 2 3 2 2 4 11 9 7 5 6 8 7 9 8 11 8 10 11 7 10 8
12 13 9 12 13 13 13 13 10 10 7 4 0 7 1 3 2 5 8 8 6 4 7 3 2 2 10 6 8 10 10 12
12 10 10 10 13 14 14 14 13 11 11 8 6 5 4 8 10 12 10 10 10 10 9 9 8 7 9 8 9 9 8 10
11 10 12 12 12 12 11 12 12 10 9 8 5 6 6 8 7 7 8 7 7 7 5 5 6 7 7 5 5 7 7 10
13 11 12 12 13 14 13 12 13 12 12 10 9 7 7 5 6 7 7 7 6 7 5 5 2 2 4 3 4 5 6 8
11 11 11 9 11 10 9 7 9 8 7 5 4 4 3 4 3 5 5 5 4 5 4 4 4 3 3 2 4 4 4 5
9 8 8 7 6 11 12 12 11 9 7 6 3 2 2 2 1 1 2 3 4 3 3 3 2 2 3 3 4 4 4 3
6 7 6 8 9 7 7 9 11 9 7 8 7 7 8 3 2 4 8 7 8 5 6 7 6 6 5 7 7 5 5 6
8 6 8 7 6 9 9 9 10 10 9 8 8 8 7 7 4 4 6 5 10 7 9 8 6 9 9 9 7 8 8 9
10 7 9 8 5 6 8 10 10 9 9 7 7 9 7 5 1 7 7 7 10 11 10 8 9 8 11 7 9 7 8 4
7 7 5 4 6 7 9 10 10 10 11 9 8 9 7 9 10 6 8 9 7 6 9 7 10 9 6 5 7 9 9 7
7 4 6 6 7 8 8 8 9 9 11 10 11 10 9 8 4 4 7 6 5 11 7 11 9 10 10 7 5 6 8 8
6 17 15 4 4 6 10 8 9 13 11 13 8 9 8 7 7 9 5 5 4 9 6 9 8 7 9 8 7 6 5 5
9 3 13 4 7 12 13 11 11 13 10 8 9 11 11 11 10 9 8 7 8 6 7 9 7 7 6 6 6 6 6 6
1 5 11 10 10 11 13 15 12 13 12 12 12 12 13 12 12 9 11 9 9 10 9 8 7 7 6 7 6 6 6 7
4 9 11 12 13 11 11 12 12 11 11 15 12 12 9 9 10 9 9 8 8 10 8 7 7 7 7 7 7 7 6 4
11 8 10 11 8 12 13 10 11 14 14 11 9 11 12 12 13 12 9 9 10 11 7 6 7 7 8 7 7 8 6 5
7 9 8 7 12 12 10 10 14 11 13 11 11 13 14 11 9 10 10 10 9 9 8 8 7 7 7 6 7 7 7 6
7 6 14 17 13 12 13 13 12 11 10 11 12 11 14 11 9 10 11 10 9 6 7 9 8 7 5 4 4 5 4 4
11 13 15 13 13 13 14 13 12 10 11 11 12 11 13 11 11 9 8 8 7 7 6 6 5 5 6 5 3 3 4 5
Wind_Direction
73 75 53 51 50 28 27 26 17 91 40 77 111 106 46 318 320 324 282 313 240 221 221 189 192 189 216 199 220 245 12 345
65 65 39 57 58 44 37 38 31 30 101 143 128 28 41 306 296 12 353 298 253 304 313 6 90 101 7 347 35 13 350 325
77 70 65 71 61 52 49 44 42 31 38 40 57 48 18 34 32 22 15 1 4 5 9 25 20 20 19 14 2 359 326 308
69 64 52 41 56 51 45 52 50 49 51 51 50 46 30 46 34 29 19 4 356 -0 7 15 13 10 5 0 348 323 312 306
60 54 51 39 36 42 39 46 43 33 34 27 27 22 24 21 30 26 10 2 360 348 332 320 325 1 0 352 324 310 293 285
61 56 59 48 58 50 59 54 58 68 65 63 75 43 49 23 17 354 350 337 1 338 352 335 306 234 201 194 269 299 298 306
68 68 70 67 67 49 45 36 35 22 39 5 12 142 40 1 138 325 334 293 276 249 248 257 238 242 217 233 217 224 294 297
120 132 121 77 66 66 58 38 24 5 13 348 1 341 336 290 50 11 359 333 304 271 274 246 234 245 223 230 233 221 242 263
129 134 124 124 80 37 30 32 25 5 7 356 356 348 339 342 55 349 333 294 324 297 302 315 244 233 234 235 221 229 230 230
129 129 85 80 77 46 25 25 23 19 4 5 359 328 322 342 331 334 42 341 339 331 341 319 312 318 298 262 247 245 245 257
117 81 125 84 68 35 27 24 14 32 6 357 3 317 332 12 347 15 346 354 326 278 298 297 300 293 299 303 276 234 244 237
39 116 41 43 21 21 38 22 14 13 2 345 354 339 0 344 338 357 314 315 298 309 326 305 315 303 303 325 285 249 260 278
50 26 4 310 8 39 25 3 359 10 359 356 5 352 323 325 328 330 343 301 295 278 322 307 310 303 309 307 303 268 276 275
48 334 282 45 11 19 359 2 15 0 351 13 336 333 335 328 326 322 335 328 325 358 339 318 319 318 327 328 325 296 280 265
104 264 295 46 17 8 338 22 4 19 358 346 347 345 333 336 342 342 335 340 343 346 333 327 335 337 346 350 342 336 293 274
275 32 11 6 11 327 13 11 12 356 350 359 359 355 353 339 343 339 331 325 340 332 336 348 0 14 20 8 14 347 318 302
23 26 14 0 311 19 39 20 338 347 17 358 354 344 350 341 336 330 334 330 332 345 344 4 24 36 42 25 35 20 22 25
44 25 339 296 21 57 21 344 356 14 9 353 350 1 7 354 350 344 348 343 347 1 26 29 37 36 37 36 47 35 19 24
359 326 23 27 25 356 2 2 357 15 352 6 5 11 2 358 4 355 354 354 8 346 32 33 27 18 31 63 55 21 23 325
5 5 37 21 6 2 9 12 17 348 0 23 20 26 346 7 349 352 349 346 352 343 25 22 39 347 336 342 357 19 346 342